Location: Beaurevoir
(49.9971°N, 3.3085°E)
Time: 14:52:03
(UTC+00:00)

USA 267 - Pass Details

Date: 23 May 2024
Orbit: 1100 x 1107 km, 123.0° (Epoch: 21 May)

Event Time Altitude Azimuth Distance (km) Brightness Sun altitude
Rises 01:58:59 0° 65° (ENE) 3,921 7.2 -13.3°
Reaches altitude 10° 02:01:30 10° 61° (ENE) 2,962 6.5 -13.0°
Maximum altitude 02:07:50 54° 347° (NNW) 1,315 4.0 -12.5°
Drops below altitude 10° 02:14:09 10° 272° (W) 2,959 5.2 -11.9°
Sets 02:16:40 0° 268° (W) 3,916 5.8 -11.7°
